Regional Weather Roundup
Issued by NWS

Home | Current Version | Previous Version | Text Only | Print | Product List | Glossary Off
Versions: 1 2 3 4 5 6 7 8 9 10 11 12 13 14 15 16 17 18 19 20 21 22 23 24 25 26 27 28 29 30 31 32 33 34 35 36 37 38 39 40 41 42 43 44 45 46 47 48 49 50

592
ASUS45 KBOU 301707
RWRCO

WEATHER ROUNDUP FOR COLORADO
NATIONAL WEATHER SERVICE DENVER/BOULDER CO
1100 AM MDT SUN APR 30 2017

NOTE: "FAIR" INDICATES FEW OR NO CLOUDS BELOW 12000 FEET WITH NO
SIGNIFICANT WEATHER AND/OR OBSTRUCTIONS TO VISIBILITY.

COZ001>005-013-030-031-301800-
...NORTHWEST COLORADO...

CITY           SKY/WX    TMP DP  RH WIND       PRES   REMARKS
CRAIG          FAIR      42  21  43 VRB3      30.15F
HAYDEN         FAIR      37  19  48 W8        30.15S
MEEKER         FAIR      40  24  53 CALM      30.15F
MOUNT WERNER   NOT AVBL
STEAMBOAT SPGS FAIR      36  21  54 S5        30.13F
WALDEN           N/A     34  16  47 NW7       30.11F WCI  28
$$

COZ006>008-011-301800-
...WEST CENTRAL VALLEYS...

CITY           SKY/WX    TMP DP  RH WIND       PRES   REMARKS
GRAND JUNCTION FAIR      50  19  29 CALM      30.16F
MONTROSE       FAIR      46  20  35 W8        30.18F
EAGLE          MOSUNNY   43  16  33 CALM      30.16F
RIFLE          FAIR      46  20  35 VRB3      30.16F
DELTA          FAIR      52  19  27 SW9G16    30.16F
NUCLA          FAIR      50  18  27 NW9       30.18F
$$

COZ017>023-064>068-301800-
...SOUTHWEST COLORADO...

CITY           SKY/WX    TMP DP  RH WIND       PRES   REMARKS
DURANGO        FAIR      44  18  35 CALM      30.05F
CORTEZ         FAIR      50  19  29 N17G24    30.12F
PAGOSA SPRINGS FAIR      42  20  40 S13       30.04F
TELLURIDE      FAIR      33  15  47 W16       30.16S WCI  22
WOLF CREEK PAS FAIR      23   0  36 NW13G24   30.13R HAZE    WCI  11
$$

COZ009-010-012-014-032>034-037-058>063-301800-
...CENTRAL COLORADO...

CITY           SKY/WX    TMP DP  RH WIND       PRES   REMARKS
ASPEN          FAIR      37  15  40 W12G18    30.13F
BUENA VISTA    FAIR      41   9  26 NW31G40   30.00S
COPPER MTN     LGT SNOW  19  14  79 NW21G31   30.07S VSB 3/4 WCI   3
BERTHOUD PASS  CLOUDY    10   0  61 NW14G31   30.04R WCI  -5
COTTONWOOD PAS FAIR      36  -4  18 W20G32    30.01R
GUNNISON       FAIR      40   6  24 NW15G22   30.09F
KREMMLING      FAIR      43  23  45 CALM      30.12F
LEADVILLE      FAIR      28   6  39 N17G29    30.07S WCI  16
MONARCH PASS     N/A     16  14  93 W26G40    30.16R WCI  -3
SALIDA         FAIR      44  11  25 N21G29    30.07F
SUNLIGHT       FAIR      23  14  68 NW3       30.20S
WILKERSON PASS FAIR      27  14  59 N13G23    30.02R WCI  16
$$

COZ069>075-301800-
...SAN LUIS VALLEY/SANGRE DE CRISTO MOUNTAINS...

CITY           SKY/WX    TMP DP  RH WIND       PRES   REMARKS
ALAMOSA        FAIR      46  17  31 NW25G32   29.98S
LA VETA PASS   FAIR      32  19  59 W14G22    30.09R WCI  22
SAGUACHE       FAIR      43   9  24 N23G35    30.00F
$$

COZ035-036-038>040-301800-
...NORTHERN COLORADO FRONT RANGE...

CITY           SKY/WX    TMP DP  RH WIND       PRES   REMARKS
DENVER INTL AP FAIR      41  24  51 N17       29.96F
DMNS CITY PARK   N/A     42  16  34 W2G10     30.00F
AURORA         MOSUNNY   37  23  55 NW10      29.99F
FRONT RANGE AP PTSUNNY   39  27  60 N18G25    29.98F
ERIE MUNI ARPT FAIR      43  23  44 NW5       29.99F
BOULDER MUN AP FAIR      43  19  39 S7        29.99S
CENTENNIAL     FAIR      37  19  48 N10       29.99S
BROOMFIELD     MOSUNNY   39  19  45 CALM      30.01R
FORT COLLINS   FAIR      48  21  34 N21G28    29.97F
LONGMONT       FAIR      49  23  35 SW8       30.00F
$$

COZ041-046-047-076>085-087-088-301800-
...PIKES PEAK/PALMER DIVIDE AND SOUTHERN FOOTHILLS...

CITY           SKY/WX    TMP DP  RH WIND       PRES   REMARKS
COLO. SPRINGS  PTSUNNY   42  13  30 N22G38    29.96F
A. F. ACADEMY  FAIR      35  15  44 N20       29.95S WCI  24
SCHRIEVER AFB  FAIR      36  17  44 NW24G33   29.94F
ELLICOTT       FAIR     N/A N/A N/A N28G37    29.91F
FALCON         FAIR      36  13  37 N22G32    29.94F
FORT CARSON    FAIR      40  16  37 N24G35    29.95F
LIMON          FAIR      37  25  61 N31G45    29.90S
MONUMENT HILL  FAIR      32  18  55 N16G26    29.98S WCI  21
TRINIDAD       FAIR      37  19  48 N20       29.96F
$$

COZ042>045-048>051-090-091-301800-
...NORTHEAST COLORADO...

CITY           SKY/WX    TMP DP  RH WIND       PRES   REMARKS
GREELEY ARPT   FAIR      51  20  29 N24G30    29.97F
AKRON          FAIR      45  19  35 N39G49    29.92R
BURLINGTON     NOT AVBL
WRAY           NOT AVBL
STERLING       FAIR      46  23  39 N24G36    29.92S
HOLYOKE        FAIR      45  23  42 N30G40    29.89R
FORT MORGAN    FAIR      48  20  33 N26G39    29.95F
$$

COZ086-089-092>099-301800-
...SOUTHEAST COLORADO...

CITY           SKY/WX    TMP DP  RH WIND       PRES   REMARKS
PUEBLO         FAIR      43  24  47 N15       29.97F
LA JUNTA       FAIR      41  26  55 N26       29.93F
LAMAR          CLOUDY    40  26  57 N25G33    29.84F
SPRINGFIELD      N/A     32  32 100 NW40G64   29.79F WCI  16
$$




USA.gov is the U.S. government's official web portal to all federal, state and local government web resources and services.